Date,TemperatureHighF,TemperatureAvgF,TemperatureLowF,DewpointHighF,DewpointAvgF,DewpointLowF,HumidityHigh,HumidityAvg,HumidityLow,PressureMaxIn,PressureMinIn,WindSpeedMaxMPH,WindSpeedAvgMPH,GustSpeedMaxMPH,PrecipitationSumIn
2013-8-1,85,73,69,78,72,68,100,95,72,29.94,29.84,10,0,12,1.79
2013-8-2,86,75,67,76,70,65,98,85,63,29.98,29.86,5,0,5,0.00
2013-8-3,85,76,68,75,71,68,100,87,61,29.98,29.90,3,0,3,0.00
2013-8-4,87,77,70,75,69,62,94,77,55,29.97,29.89,5,0,5,0.00
2013-8-5,83,74,67,74,68,62,99,83,69,30.02,29.91,3,0,4,0.12
2013-8-6,83,74,69,76,72,69,100,95,76,30.00,29.91,3,0,3,1.10
2013-8-7,74,72,70,74,72,70,100,100,97,30.03,29.96,3,0,4,2.21
2013-8-8,82,74,69,76,73,69,100,94,79,30.02,29.96,5,0,5,0.01
2013-8-9,87,75,71,78,74,70,100,95,70,30.03,29.96,7,0,7,0.44
2013-8-10,87,75,69,80,73,69,100,95,66,30.10,29.99,8,0,11,1.21
2013-8-11,87,73,67,79,72,67,100,97,71,30.09,30.01,6,0,6,0.74
2013-8-12,88,75,69,78,73,69,100,92,66,30.05,29.91,3,0,4,0.00
2013-8-13,87,76,70,78,72,67,100,89,67,29.92,29.76,5,0,5,0.00
2013-8-14,80,72,68,71,67,63,94,85,69,30.01,29.81,4,0,4,0.00
2013-8-15,70,65,61,65,62,58,98,89,76,30.09,29.99,4,0,5,0.00
2013-8-16,73,65,61,65,61,59,95,88,69,30.12,30.04,5,0,5,0.00
2013-8-17,69,64,62,64,62,58,99,91,78,30.14,30.08,7,0,7,0.09
2013-8-18,73,67,63,71,66,63,100,98,86,30.19,30.09,2,0,2,0.41
2013-8-19,77,69,66,72,68,66,100,97,83,30.16,30.04,2,0,2,1.87
2013-8-20,80,71,65,74,69,65,100,94,81,30.15,30.06,2,0,2,0.00
2013-8-21,83,72,68,75,70,68,100,95,77,30.19,30.07,4,0,4,0.24
2013-8-22,84,73,66,77,71,66,100,94,67,30.12,29.98,4,0,5,0.04
2013-8-23,86,73,66,75,70,66,100,91,60,30.02,29.91,3,0,4,0.10
2013-8-24,80,70,64,70,66,60,100,86,60,30.25,30.01,4,0,5,0.01
2013-8-25,79,68,59,68,62,58,96,83,60,30.34,30.23,4,0,4,0.00
2013-8-26,84,70,59,71,64,58,98,84,61,30.29,30.09,3,0,3,0.00
2013-8-27,86,73,62,74,68,62,99,86,60,30.11,29.96,6,0,6,0.00
2013-8-28,86,77,69,77,71,66,94,82,63,29.99,29.89,4,0,4,0.00
2013-8-29,91,78,69,79,72,67,97,81,60,29.92,29.83,6,0,6,0.00
2013-8-30,82,74,71,76,72,70,100,94,78,30.00,29.88,4,0,4,0.70
2013-8-31,84,73,68,78,72,68,100,96,76,29.92,29.84,6,0,7,2.23